Tracking 17142 objects as of 27-May-2015
HD Live streaming from Space Station

COSMOS 1023

Track COSMOS 1023 now!
10-day predictions
COSMOS 1023 is classified as:


NORAD ID: 10961
Int'l Code: 1978-063A
Perigee: 766.5 km
Apogee: 789.2 km
Inclination: 74.1 °
Period: 100.3 minutes
Semi major axis: 7148 km
RCS: 3.0969 m2 (large)
Launch date: June 21, 1978
Source: Commonwealth of Independent States (former USSR) (CIS)
Your satellite tracking list
Your tracking list is empty





NASA's NSSDC Master Catalog

Two Line Element Set (TLE):
1 10961U 78063A   15146.54065235  .00000076  00000-0  34662-4 0  9996
2 10961 074.0760 294.3733 0015897 038.2424 321.9854 14.36318303933062

Source of the keplerian elements: AFSPC

N2YO: 461